[[{"header":{"parameterUnit":"m.s-1","parameterCategory":2,"la1":30.2991,"la2":30.254,"lo1":-89.0895,"lo2":-89.0444,"dy":0.0017,"dx":0.0017,"nx":28,"ny":28,"refTime":"2023-10-28T09:00:00:Z","depth":"0","parameterNumber":2,"parameterNumberName":"U-component_of_CURRENTS"},"data":[0,0,0,0,0,0,0,0,0,0,0,0,0,0,0,0,0,0,0,0,0,0,0,0,0,0,0,0,0,0,0,0,0,0,0,0,0,0,0,0,0,0,0,0,0,0,0,0,0,0,0,0,0,0,0,0,0,0,-0.178,-0.178,0,-0.1827,-0.1828,-0.1828,-0.1813,-0.1812,-0.1811,-0.181,-0.1844,-0.1845,-0.1847,0,0,0,0,0,0,0,0,0,0,0,0,0,-0.1741,-0.1742,-0.178,-0.178,-0.1781,-0.1827,-0.1828,-0.1828,-0.1813,-0.1812,-0.181,-0.1809,-0.1843,-0.1845,-0.1847,0,0,0,0,0,0,0,0,0,0,0,0,0,-0.1769,-0.1742,-0.178,-0.178,-0.178,-0.1827,-0.1828,-0.1828,-0.1813,-0.1812,-0.181,-0.1809,-0.1842,-0.1845,-0.1848,-0.1892,0,0,-0.1856,-0.1857,0,0,0,0,0,0,0,0,-0.1768,-0.1771,-0.1779,-0.178,-0.178,-0.1813,-0.1827,-0.1849,-0.1813,-0.18,-0.181,-0.1808,-0.1834,-0.1837,-0.1848,-0.1894,-0.1895,-0.1856,-0.1858,-0.1859,-0.186,0,0,0,0,0,0,0,-0.1766,-0.1769,-0.1798,-0.178,-0.1781,-0.18,-0.1801,-0.1831,-0.1823,-0.1801,-0.18,-0.1807,-0.1834,-0.1846,-0.1849,-0.1896,-0.1856,-0.1858,-0.186,-0.1861,-0.2022,-0.2025,0,0,0,0,0,0,-0.176,-0.1767,-0.1796,-0.1799,-0.1772,-0.1801,-0.1803,-0.1803,-0.1823,-0.1825,-0.1808,-0.1806,-0.1842,-0.1846,-0.185,-0.1939,-0.1859,-0.1861,-0.1863,-0.202,-0.2023,-0.2026,0,0,0,0,0,0,-0.1759,-0.1762,-0.1794,-0.1785,-0.1791,-0.1803,-0.1804,-0.1805,-0.1808,-0.1829,-0.183,-0.1808,-0.1841,-0.1846,-0.1874,-0.1938,-0.1863,-0.1865,-0.2017,-0.2021,-0.2024,-0.2094,0,0,0,0,0,0,-0.1757,-0.1761,-0.1756,-0.1785,-0.1791,-0.182,-0.1805,-0.1807,-0.1816,-0.1813,-0.183,-0.1832,-0.184,-0.187,-0.1876,-0.194,-0.1867,-0.2013,-0.2018,-0.2023,-0.2088,-0.2099,-0.2109,0,0,0,0,0,-0.1756,-0.1762,-0.1756,-0.1759,-0.1785,-0.1821,-0.1826,-0.183,-0.1817,-0.1826,-0.1835,-0.1831,-0.1908,-0.1873,-0.188,-0.1947,-0.2011,-0.2017,-0.2023,-0.2083,-0.2097,-0.2109,0,0,0,0,0,0,-0.175,-0.1762,-0.1755,-0.1765,-0.1788,-0.1819,-0.1826,-0.1831,-0.1846,-0.1838,-0.1849,-0.1853,-0.1907,-0.1915,-0.1877,-0.2011,-0.1967,-0.1974,-0.201,-0.2023,-0.2034,-0.2008,-0.1869,0,0,0,0,0,-0.1745,-0.1745,-0.1768,-0.1776,-0.1784,-0.1803,-0.1815,-0.1822,-0.1842,-0.1846,-0.1862,-0.1892,-0.1944,-0.1967,-0.1998,-0.2063,-0.2013,-0.2117,-0.2128,-0.2137,-0.2124,-0.2127,-0.2136,-0.2046,-0.2046,-0.2046,0,0,-0.1746,-0.1752,-0.1752,-0.1774,-0.1786,-0.1824,-0.1806,-0.1827,-0.187,-0.185,-0.1899,-0.1919,-0.1965,-0.2038,-0.2066,-0.205,-0.2128,-0.2145,-0.2152,-0.2133,-0.2134,-0.2142,-0.215,-0.205,-0.2049,-0.2048,0,0,-0.1756,-0.1751,-0.1755,-0.178,-0.1801,-0.1829,-0.1834,-0.1864,-0.1882,-0.1932,-0.1943,-0.1988,-0.2054,-0.2107,-0.2144,-0.2234,-0.2176,-0.2262,-0.2306,-0.2311,-0.2317,-0.2322,-0.2219,-0.2215,-0.2278,-0.2278,-0.2278,0,-0.1751,-0.1772,-0.1766,-0.179,-0.1825,-0.1833,-0.1875,-0.1907,-0.1946,-0.1975,-0.1952,-0.2058,-0.2094,-0.2202,-0.2242,-0.2259,-0.2206,-0.2251,-0.2321,-0.2326,-0.2329,-0.2223,-0.2217,-0.2282,-0.2281,-0.2281,-0.2281,0,-0.1771,-0.1798,-0.1809,-0.1845,-0.188,-0.1918,-0.1966,-0.2003,-0.2024,-0.2054,-0.2128,-0.2162,-0.2221,-0.2269,-0.2285,-0.2365,-0.2294,-0.2322,-0.2278,-0.2342,-0.2226,-0.2218,-0.2288,-0.2286,-0.2285,-0.2284,0,0,-0.1743,-0.1809,-0.1814,-0.1844,-0.1918,-0.1943,-0.2033,-0.2111,-0.2141,-0.2188,-0.2224,-0.2344,-0.2327,-0.2367,-0.2397,-0.2416,-0.2397,-0.2385,-0.2383,-0.226,-0.2317,-0.2238,-0.2221,-0.2435,-0.2436,-0.2436,-0.2204,0,-0.1765,-0.1817,-0.1862,-0.1938,-0.1975,-0.204,-0.2112,-0.2179,-0.2221,-0.2249,-0.2304,-0.2338,-0.2379,-0.2387,-0.2426,-0.2407,-0.2389,-0.2451,-0.2291,-0.2284,-0.2192,-0.2216,-0.2153,-0.1941,-0.2196,-0.2194,-0.2193,0,-0.1767,-0.1812,-0.1882,-0.1977,-0.1997,-0.2047,-0.2145,-0.2209,-0.2277,-0.2298,-0.235,-0.2355,-0.2409,-0.2406,-0.2398,-0.243,-0.2374,-0.2342,-0.2334,-0.2231,-0.2195,-0.1932,-0.1916,-0.1923,-0.2181,-0.2182,-0.2182,0,-0.1726,-0.1824,-0.1881,-0.1916,-0.2024,-0.207,-0.2128,-0.2213,-0.2265,-0.2301,-0.2315,-0.2359,-0.2363,-0.2341,-0.2299,-0.2342,-0.2216,-0.227,-0.2125,-0.2114,-0.2013,-0.1994,-0.1971,-0.2227,-0.2228,-0.2229,-0.2229,0,-0.1734,-0.1774,-0.1854,-0.1883,-0.1946,-0.2023,-0.2085,-0.2147,-0.2215,-0.2247,-0.2314,-0.2319,-0.2354,-0.2302,-0.2253,-0.214,-0.2179,-0.2105,-0.2069,-0.203,-0.2017,-0.198,-0.2019,-0.222,-0.2222,-0.2223,-0.2225,0,-0.1678,-0.1739,-0.1793,-0.1892,-0.1924,-0.1951,-0.2061,-0.2092,-0.2171,-0.2206,-0.2215,-0.228,-0.221,-0.2177,-0.2093,-0.2073,-0.1929,-0.1905,-0.18,-0.1759,-0.1683,-0.1728,-0.1618,-0.1573,-0.172,-0.1717,-0.1714,0,-0.1656,-0.1675,-0.1762,-0.1783,-0.1828,-0.1889,-0.1933,-0.2046,-0.2085,-0.2168,-0.2166,-0.2139,-0.2072,-0.1905,-0.1846,-0.1687,-0.1748,-0.1565,-0.1684,-0.1649,-0.1672,-0.1713,-0.1688,-0.1534,-0.153,-0.1527,-0.1525,0,-0.1608,-0.1623,-0.1659,-0.17,-0.174,-0.1799,-0.1866,-0.1895,-0.2006,-0.202,-0.1981,-0.192,-0.1822,-0.1671,-0.1537,-0.146,-0.1561,-0.1498,-0.1521,-0.157,-0.1553,-0.15,-0.1646,-0.1497,-0.15,-0.1502,-0.1504,-0.1505,-0.1543,-0.154,-0.1567,-0.1594,-0.1639,-0.1664,-0.1657,-0.172,-0.1726,-0.1701,-0.1734,-0.1602,-0.1575,-0.1391,-0.1317,-0.1257,-0.1324,-0.1258,-0.131,-0.1349,-0.1349,-0.1384,-0.1189,-0.119,-0.1191,-0.1191,-0.1192,0,-0.1462,-0.1453,-0.1465,-0.1484,-0.1473,-0.1542,-0.1576,-0.1528,-0.1455,-0.1433,-0.1343,-0.1274,-0.1179,-0.1185,-0.1163,-0.1109,-0.1113,-0.1089,-0.1165,-0.1147,-0.1209,-0.125,-0.0989,-0.0989,-0.0989,-0.0989,-0.0989,-0.0989,-0.142,-0.1378,-0.1373,-0.1303,-0.1312,-0.1254,-0.1232,-0.1163,-0.1116,-0.0963,-0.0912,-0.0883,-0.1017,-0.1185,-0.1161,-0.1096,-0.1102,-0.1043,-0.1073,-0.1174,-0.1196,-0.1217,-0.1266,-0.1013,-0.1013,-0.0971,-0.0971,-0.0971]},{"header":{"parameterUnit":"m.s-1","parameterCategory":2,"la1":30.2991,"la2":30.254,"lo1":-89.0895,"lo2":-89.0444,"dy":0.0017,"dx":0.0017,"nx":28,"ny":28,"refTime":"2023-10-28T09:00:00:Z","depth":"0","parameterNumber":3,"parameterNumberName":"V-component_of_CURRENTS"},"data":[0,0,0,0,0,0,0,0,0,0,0,0,0,0,0,0,0,0,0,0,0,0,0,0,0,0,0,0,0,0,0,0,0,0,0,0,0,0,0,0,0,0,0,0,0,0,0,0,0,0,0,0,0,0,0,0,0,0,-0.0137,-0.0136,0,-0.0027,-0.0026,-0.0024,0.0043,0.0043,0.0043,0.0043,0.0284,0.029,0.0297,0,0,0,0,0,0,0,0,0,0,0,0,0,-0.0147,-0.0148,-0.0137,-0.0136,-0.0135,-0.0028,-0.0026,-0.0024,0.0043,0.0043,0.0043,0.0043,0.0282,0.029,0.0297,0,0,0,0,0,0,0,0,0,0,0,0,0,-0.0098,-0.0148,-0.0137,-0.0091,-0.0085,-0.0028,-0.0026,-0.0024,0.0043,0.0043,0.0043,0.0043,0.028,0.0289,0.0298,0.0354,0,0,0.0327,0.0331,0,0,0,0,0,0,0,0,-0.0101,-0.0098,-0.0099,-0.0094,-0.0088,-0.0008,0.0059,0.0108,0.0043,-0.0003,0.0043,0.0043,0.0197,0.0213,0.0235,0.0365,0.0375,0.0328,0.0334,0.0338,0.034,0,0,0,0,0,0,0,-0.0105,-0.0101,-0.0091,-0.0098,-0.0091,-0.0026,-0.002,0.0069,0.0099,0.0001,0.0005,0.0013,0.0201,0.0226,0.0242,0.0379,0.0328,0.0336,0.0342,0.0346,0.057,0.0571,0,0,0,0,0,0,-0.0132,-0.0106,-0.0095,-0.0088,-0.0097,-0.0027,-0.002,-0.0032,0.0095,0.0113,0.0013,0.0016,0.021,0.0231,0.0251,0.0299,0.0338,0.0347,0.0352,0.057,0.0571,0.0571,0,0,0,0,0,0,-0.0133,-0.0133,-0.0099,-0.0095,-0.0086,-0.0029,-0.0041,-0.003,-0.0006,0.0103,0.0124,0.0024,0.021,0.0237,0.0316,0.031,0.0351,0.036,0.057,0.057,0.0571,0.0413,0,0,0,0,0,0,-0.0134,-0.0134,-0.0148,-0.0098,-0.0088,-0.0077,-0.0041,-0.0028,-0.0003,0.0002,0.012,0.0142,0.0213,0.0301,0.0326,0.0324,0.0367,0.0569,0.057,0.0571,0.0418,0.0408,0.0399,0,0,0,0,0,-0.0135,-0.0161,-0.015,-0.0148,-0.0111,-0.0078,-0.0067,-0.0021,-0.0003,0.0002,0.0076,0.0138,0.0322,0.0309,0.0337,0.0338,0.0569,0.057,0.0571,0.0422,0.041,0.0399,0,0,0,0,0,0,-0.0166,-0.0156,-0.0142,-0.0163,-0.0128,-0.0068,-0.0061,-0.0028,0.0033,0.004,0.0143,0.017,0.0237,0.0315,0.0298,0.0407,0.0457,0.0463,0.0334,0.0324,0.0315,0.0266,0.0375,0,0,0,0,0,-0.0183,-0.0203,-0.0169,-0.0181,-0.0173,-0.0117,-0.0097,-0.0068,-0.001,0.0016,0.0096,0.0186,0.0263,0.0312,0.0394,0.0458,0.0507,0.048,0.047,0.0462,0.0443,0.048,0.0471,0.0573,0.0573,0.0573,0,0,-0.0197,-0.0193,-0.0203,-0.0189,-0.0159,-0.0155,-0.0104,-0.0085,-0.0075,0.0037,0.0079,0.0159,0.0273,0.0332,0.0371,0.0396,0.0466,0.0463,0.0454,0.044,0.0479,0.0469,0.046,0.0573,0.0573,0.0573,0,0,-0.0235,-0.0234,-0.0263,-0.0245,-0.0217,-0.0183,-0.0184,-0.013,-0.0104,-0.0052,0.0023,0.0086,0.022,0.0279,0.0332,0.0329,0.0412,0.0371,0.0288,0.0323,0.0314,0.0306,0.037,0.0369,0.0368,0.0368,0.0368,0,-0.025,-0.0288,-0.026,-0.0276,-0.0273,-0.0205,-0.0225,-0.0184,-0.011,-0.0098,-0.0056,0.0094,0.0188,0.0245,0.0239,0.0304,0.0346,0.0312,0.0305,0.0299,0.0293,0.0361,0.0362,0.036,0.0361,0.0362,0.0363,0,-0.0306,-0.0333,-0.0345,-0.0354,-0.034,-0.0345,-0.0298,-0.0272,-0.0228,-0.0192,-0.0132,-0.0016,0.0068,0.0112,0.0177,0.0193,0.0244,0.028,0.0316,0.0272,0.0349,0.0352,0.035,0.0352,0.0355,0.0356,0,0,-0.035,-0.0385,-0.0388,-0.0413,-0.0389,-0.0385,-0.0373,-0.0354,-0.0351,-0.0276,-0.0266,-0.0152,-0.0102,-0.0039,0.0053,0.0085,0.0094,0.0154,0.0159,0.0188,0.0187,0.0237,0.0248,0.0118,0.0118,0.0117,0.0259,0,-0.0402,-0.0471,-0.0465,-0.051,-0.0541,-0.0492,-0.0492,-0.0461,-0.0408,-0.0373,-0.0282,-0.0226,-0.0153,-0.0109,-0.0074,0.0063,0.0095,0.0054,0.0252,0.0259,0.0282,0.0249,0.0288,0.0418,0.0264,0.0264,0.0265,0,-0.0458,-0.0501,-0.0573,-0.0613,-0.0622,-0.0631,-0.0622,-0.0608,-0.0547,-0.0508,-0.0452,-0.0366,-0.029,-0.0223,-0.0064,-0.0095,0.0019,0.0116,0.0125,0.0223,0.0314,0.0439,0.0431,0.0554,0.0272,0.0271,0.0271,0,-0.0514,-0.0572,-0.0641,-0.0652,-0.0681,-0.0698,-0.0696,-0.0656,-0.0654,-0.0586,-0.0557,-0.0471,-0.0376,-0.0274,-0.006,-0.0071,0.0126,0.0147,0.0298,0.0305,0.0404,0.0419,0.0509,0.0229,0.0228,0.0228,0.0228,0,-0.0579,-0.0628,-0.0674,-0.0714,-0.0784,-0.0768,-0.0809,-0.0785,-0.075,-0.0726,-0.063,-0.0548,-0.0388,-0.0237,-0.0094,0.0128,0.0106,0.0271,0.0331,0.0355,0.0364,0.053,0.0579,0.0233,0.0232,0.0231,0.023,0,-0.0629,-0.0661,-0.0743,-0.0799,-0.0818,-0.0861,-0.0891,-0.0909,-0.0853,-0.0803,-0.0784,-0.0607,-0.0392,-0.0217,0.0016,0.0125,0.0393,0.0391,0.0422,0.0481,0.0685,0.0724,0.0881,0.0962,0.0542,0.0544,0.0545,0,-0.0663,-0.0714,-0.0809,-0.086,-0.089,-0.0944,-0.0982,-0.0968,-0.0959,-0.0801,-0.0767,-0.0555,-0.0344,0.0001,0.021,0.0445,0.0533,0.0599,0.0564,0.0688,0.0777,0.0796,0.0853,0.0656,0.0658,0.066,0.0662,0,-0.0726,-0.076,-0.0829,-0.0939,-0.1,-0.1063,-0.1089,-0.1094,-0.1017,-0.0902,-0.0669,-0.0484,-0.0137,0.0178,0.0443,0.0572,0.0679,0.0645,0.0764,0.0851,0.0889,0.0999,0.0593,0.0679,0.0677,0.0676,0.0675,0.0674,-0.0762,-0.0826,-0.0917,-0.1016,-0.1088,-0.1137,-0.1149,-0.1077,-0.0987,-0.0719,-0.057,-0.0191,0.0121,0.0522,0.0671,0.0925,0.0872,0.0981,0.1018,0.1025,0.1088,0.072,0.0871,0.087,0.0869,0.0869,0.0869,0,-0.0802,-0.088,-0.0984,-0.1095,-0.1171,-0.1193,-0.1192,-0.1108,-0.0898,-0.0568,-0.0262,0.0186,0.055,0.0824,0.1144,0.1284,0.1311,0.1339,0.1374,0.1413,0.1094,0.1082,0.1296,0.1296,0.1296,0.1296,0.1296,0.1296,-0.0831,-0.0938,-0.1001,-0.1138,-0.1202,-0.1228,-0.1204,-0.0993,-0.0738,-0.0199,0.0177,0.0447,0.0747,0.126,0.1588,0.1612,0.1742,0.1719,0.179,0.1567,0.1535,0.1506,0.1506,0.1806,0.1806,0.2103,0.2106,0.2108]}],[{"header":{"parameterUnit":"m.s-1","parameterCategory":2,"la1":30.2991,"la2":30.254,"lo1":-89.0895,"lo2":-89.0444,"dy":0.0017,"dx":0.0017,"nx":28,"ny":28,"refTime":"2023-10-28T09:00:00:Z","depth":"2","parameterNumber":2,"parameterNumberName":"U-component_of_CURRENTS"},"data":[0,0,0,0,0,0,0,0,0,0,0,0,0,0,0,0,0,0,0,0,0,0,0,0,0,0,0,0,0,0,0,0,0,0,0,0,0,0,0,0,0,0,0,0,0,0,0,0,0,0,0,0,0,0,0,0,0,0,-0.1381,-0.1382,0,-0.1448,-0.1449,-0.1449,-0.1514,-0.1515,-0.1516,-0.1517,-0.1609,-0.1611,-0.1612,0,0,0,0,0,0,0,0,0,0,0,0,0,-0.1199,-0.1203,-0.1381,-0.1382,-0.1383,-0.1448,-0.1449,-0.145,-0.1514,-0.1515,-0.1516,-0.1518,-0.1609,-0.1611,-0.1612,0,0,0,0,0,0,0,0,0,0,0,0,0,-0.1271,-0.1204,-0.1381,-0.1426,-0.143,-0.1448,-0.1449,-0.145,-0.1513,-0.1515,-0.1517,-0.1518,-0.1608,-0.1611,-0.1613,-0.1592,0,0,-0.1619,-0.162,0,0,0,0,0,0,0,0,-0.1267,-0.1277,-0.1418,-0.1423,-0.1428,-0.1477,-0.1419,-0.15,-0.1513,-0.1478,-0.1517,-0.1519,-0.1568,-0.1574,-0.1578,-0.1596,-0.16,-0.1619,-0.1621,-0.1621,-0.1622,0,0,0,0,0,0,0,-0.1262,-0.1274,-0.1404,-0.1419,-0.1425,-0.1405,-0.1418,-0.1434,-0.1511,-0.1482,-0.1487,-0.1499,-0.1571,-0.1576,-0.1581,-0.1602,-0.1619,-0.1621,-0.1622,-0.1623,-0.1721,-0.1722,0,0,0,0,0,0,-0.1265,-0.127,-0.1402,-0.1407,-0.1354,-0.1408,-0.1422,-0.1457,-0.1511,-0.1521,-0.1498,-0.1502,-0.1571,-0.1578,-0.1584,-0.1689,-0.1621,-0.1623,-0.1625,-0.1719,-0.1721,-0.1722,0,0,0,0,0,0,-0.1261,-0.1277,-0.14,-0.134,-0.1355,-0.1411,-0.1449,-0.1458,-0.1491,-0.1523,-0.1534,-0.1526,-0.1573,-0.1581,-0.1642,-0.1689,-0.1624,-0.1626,-0.1718,-0.172,-0.1722,-0.1818,0,0,0,0,0,0,-0.1256,-0.1275,-0.1304,-0.1342,-0.1359,-0.1423,-0.1448,-0.1458,-0.1496,-0.1503,-0.155,-0.1559,-0.1575,-0.1639,-0.1644,-0.169,-0.1628,-0.1716,-0.1719,-0.1721,-0.1813,-0.1823,-0.1832,0,0,0,0,0,-0.1249,-0.1282,-0.1305,-0.1321,-0.1397,-0.1423,-0.143,-0.147,-0.1496,-0.1507,-0.1561,-0.1559,-0.1658,-0.1642,-0.1648,-0.1696,-0.1715,-0.1718,-0.1721,-0.1809,-0.1821,-0.1831,0,0,0,0,0,0,-0.1224,-0.1293,-0.1319,-0.1375,-0.1403,-0.1436,-0.1455,-0.148,-0.1528,-0.1545,-0.1579,-0.1592,-0.1654,-0.1656,-0.1638,-0.1728,-0.1684,-0.1688,-0.1749,-0.176,-0.1769,-0.1764,-0.163,0,0,0,0,0,-0.123,-0.1274,-0.1323,-0.1366,-0.1384,-0.1421,-0.1441,-0.1466,-0.151,-0.1533,-0.1572,-0.1616,-0.1662,-0.1699,-0.1718,-0.1775,-0.1723,-0.1805,-0.1815,-0.1823,-0.1821,-0.1803,-0.181,-0.1732,-0.1732,-0.1732,0,0,-0.1233,-0.1276,-0.1303,-0.1363,-0.139,-0.1424,-0.1437,-0.147,-0.1515,-0.1534,-0.161,-0.1638,-0.1678,-0.1745,-0.1773,-0.1764,-0.181,-0.1827,-0.1834,-0.1827,-0.1806,-0.1814,-0.182,-0.1734,-0.1734,-0.1734,0,0,-0.1235,-0.1298,-0.1322,-0.1355,-0.14,-0.1429,-0.1445,-0.149,-0.1531,-0.1589,-0.1629,-0.1699,-0.1746,-0.181,-0.1844,-0.1912,-0.1845,-0.1909,-0.1976,-0.196,-0.1966,-0.1971,-0.1877,-0.1873,-0.1933,-0.1933,-0.1933,0,-0.1236,-0.1293,-0.1328,-0.1358,-0.141,-0.1439,-0.1484,-0.1516,-0.1579,-0.1633,-0.1622,-0.1741,-0.1783,-0.1899,-0.1936,-0.1938,-0.1876,-0.1939,-0.1972,-0.1976,-0.1979,-0.1882,-0.1877,-0.1938,-0.1938,-0.1937,-0.1937,0,-0.1247,-0.1307,-0.1325,-0.1393,-0.1439,-0.1483,-0.1542,-0.1594,-0.1645,-0.1685,-0.1783,-0.1831,-0.1908,-0.194,-0.1969,-0.204,-0.1966,-0.197,-0.1944,-0.1993,-0.1887,-0.1879,-0.1945,-0.1944,-0.1942,-0.1941,0,0,-0.1232,-0.132,-0.1334,-0.1395,-0.1478,-0.1524,-0.1607,-0.1705,-0.1773,-0.1817,-0.1894,-0.2007,-0.2018,-0.2055,-0.2093,-0.2108,-0.2088,-0.2059,-0.2056,-0.1964,-0.1977,-0.1931,-0.1917,-0.2091,-0.2091,-0.2091,-0.188,0,-0.1244,-0.1319,-0.1368,-0.1474,-0.1534,-0.162,-0.1701,-0.1791,-0.1849,-0.1911,-0.1976,-0.2037,-0.2063,-0.21,-0.2123,-0.209,-0.2077,-0.214,-0.1944,-0.1937,-0.1892,-0.1912,-0.1811,-0.1616,-0.1872,-0.187,-0.1869,0,-0.1241,-0.1313,-0.1404,-0.1563,-0.16,-0.166,-0.1829,-0.1898,-0.1988,-0.2027,-0.2089,-0.2096,-0.2152,-0.2136,-0.2095,-0.2123,-0.2059,-0.2019,-0.201,-0.193,-0.188,-0.1617,-0.1591,-0.1855,-0.1856,-0.1857,-0.1858,0,-0.1221,-0.1352,-0.1441,-0.1491,-0.1645,-0.1726,-0.1817,-0.1936,-0.2006,-0.2075,-0.208,-0.2139,-0.212,-0.2085,-0.2016,-0.2044,-0.1902,-0.1926,-0.1813,-0.1804,-0.1663,-0.1644,-0.1876,-0.1877,-0.1877,-0.1878,-0.1878,0,-0.1221,-0.13,-0.144,-0.1492,-0.1635,-0.1735,-0.1862,-0.1956,-0.2035,-0.2067,-0.2116,-0.2097,-0.2103,-0.2028,-0.1981,-0.1849,-0.1865,-0.1808,-0.1764,-0.1689,-0.1676,-0.1854,-0.1854,-0.187,-0.1871,-0.1873,-0.1874,0,-0.1163,-0.1245,-0.137,-0.1552,-0.1615,-0.1714,-0.1882,-0.1946,-0.2016,-0.2032,-0.2039,-0.2041,-0.1937,-0.1904,-0.1807,-0.1776,-0.1683,-0.1632,-0.151,-0.146,-0.1591,-0.1599,-0.1478,-0.1475,-0.1472,-0.147,-0.1468,0,-0.1144,-0.1184,-0.1394,-0.147,-0.155,-0.1699,-0.1784,-0.1925,-0.1961,-0.197,-0.1941,-0.1871,-0.1777,-0.1615,-0.157,-0.1453,-0.154,-0.1311,-0.1398,-0.1589,-0.1558,-0.157,-0.1581,-0.1206,-0.1202,-0.1199,-0.1196,0,-0.111,-0.1168,-0.1272,-0.142,-0.153,-0.165,-0.1761,-0.1778,-0.1865,-0.1857,-0.1758,-0.1677,-0.1535,-0.1388,-0.1296,-0.1232,-0.134,-0.1246,-0.1456,-0.1359,-0.1327,-0.1299,-0.1319,-0.1169,-0.1172,-0.1174,-0.1175,-0.1176,-0.1078,-0.1132,-0.1242,-0.137,-0.1493,-0.1538,-0.1536,-0.162,-0.1629,-0.1544,-0.1532,-0.1367,-0.1335,-0.1134,-0.1057,-0.1026,-0.1123,-0.1099,-0.1111,-0.1125,-0.1169,-0.1139,-0.0946,-0.0948,-0.0949,-0.095,-0.0951,0,-0.1017,-0.1068,-0.1183,-0.1311,-0.1369,-0.1461,-0.1469,-0.1394,-0.1319,-0.1329,-0.1228,-0.1022,-0.0932,-0.0909,-0.0824,-0.0816,-0.0828,-0.0788,-0.0816,-0.0843,-0.0867,-0.0901,-0.0605,-0.0604,-0.0603,-0.0602,0,0,-0.0978,-0.1023,-0.1072,-0.1139,-0.1215,-0.1159,-0.1099,-0.1019,-0.0973,-0.0872,-0.0832,-0.0848,-0.0866,-0.0731,-0.0709,-0.0644,-0.0735,-0.0609,-0.0884,-0.0942,-0.0965,-0.1039,-0.1121,0,0,0,0,0]},{"header":{"parameterUnit":"m.s-1","parameterCategory":2,"la1":30.2991,"la2":30.254,"lo1":-89.0895,"lo2":-89.0444,"dy":0.0017,"dx":0.0017,"nx":28,"ny":28,"refTime":"2023-10-28T09:00:00:Z","depth":"2","parameterNumber":3,"parameterNumberName":"V-component_of_CURRENTS"},"data":[0,0,0,0,0,0,0,0,0,0,0,0,0,0,0,0,0,0,0,0,0,0,0,0,0,0,0,0,0,0,0,0,0,0,0,0,0,0,0,0,0,0,0,0,0,0,0,0,0,0,0,0,0,0,0,0,0,0,-0.0276,-0.0276,0,-0.0191,-0.0189,-0.0188,-0.01,-0.0099,-0.0099,-0.0098,0.0151,0.0157,0.0163,0,0,0,0,0,0,0,0,0,0,0,0,0,-0.0274,-0.0274,-0.0276,-0.0276,-0.0275,-0.0191,-0.0189,-0.0187,-0.01,-0.0099,-0.0099,-0.0098,0.0149,0.0156,0.0163,0,0,0,0,0,0,0,0,0,0,0,0,0,-0.0235,-0.0274,-0.0276,-0.0226,-0.0221,-0.0191,-0.0189,-0.0187,-0.01,-0.0099,-0.0098,-0.0097,0.0147,0.0155,0.0164,0.02,0,0,0.0192,0.0196,0,0,0,0,0,0,0,0,-0.0237,-0.0234,-0.0234,-0.0229,-0.0224,-0.016,-0.0097,-0.0051,-0.0101,-0.014,-0.0098,-0.0097,0.0058,0.0074,0.0094,0.0211,0.0222,0.0193,0.0198,0.0202,0.0204,0,0,0,0,0,0,0,-0.024,-0.0237,-0.0237,-0.0233,-0.0227,-0.0176,-0.017,-0.0088,-0.004,-0.0137,-0.0131,-0.0131,0.0063,0.0085,0.0101,0.0226,0.0192,0.02,0.0206,0.0209,0.0413,0.0413,0,0,0,0,0,0,-0.0268,-0.0241,-0.0239,-0.0235,-0.0234,-0.0178,-0.0171,-0.0177,-0.0045,-0.0027,-0.0132,-0.0128,0.0069,0.009,0.011,0.0177,0.0202,0.021,0.0215,0.0413,0.0413,0.0413,0,0,0,0,0,0,-0.0269,-0.0269,-0.0243,-0.0239,-0.0233,-0.0181,-0.0187,-0.0176,-0.0147,-0.0044,-0.0021,-0.0116,0.007,0.0097,0.0186,0.0187,0.0214,0.0223,0.0413,0.0413,0.0413,0.03,0,0,0,0,0,0,-0.0269,-0.027,-0.0278,-0.0242,-0.0235,-0.0221,-0.0188,-0.0175,-0.0152,-0.0144,-0.0022,0.0001,0.0073,0.0172,0.0195,0.0199,0.023,0.0413,0.0413,0.0413,0.0304,0.0296,0.029,0,0,0,0,0,-0.0269,-0.0288,-0.0279,-0.0279,-0.025,-0.0222,-0.0212,-0.0167,-0.0152,-0.0137,-0.006,-0.0002,0.0188,0.0179,0.0206,0.0213,0.0413,0.0413,0.0413,0.0307,0.0298,0.029,0,0,0,0,0,0,-0.0288,-0.0281,-0.027,-0.0284,-0.0255,-0.0209,-0.02,-0.0172,-0.0104,-0.0094,0.0005,0.0034,0.0107,0.0177,0.0165,0.0271,0.0307,0.0313,0.0218,0.021,0.0203,0.0186,0.0237,0,0,0,0,0,-0.0301,-0.0313,-0.0288,-0.0297,-0.029,-0.0246,-0.023,-0.0201,-0.0144,-0.0114,-0.0035,0.0051,0.0125,0.018,0.0255,0.0324,0.0366,0.0344,0.0337,0.033,0.0334,0.0374,0.037,0.0413,0.0413,0.0413,0,0,-0.0313,-0.031,-0.0317,-0.0302,-0.0279,-0.0264,-0.0231,-0.0213,-0.0192,-0.0095,-0.0037,0.0029,0.0135,0.0201,0.0241,0.0265,0.034,0.033,0.0324,0.0332,0.0373,0.0369,0.0365,0.0413,0.0413,0.0413,0,0,-0.0336,-0.034,-0.0351,-0.0332,-0.0308,-0.0282,-0.0281,-0.0236,-0.0206,-0.0152,-0.0083,-0.0017,0.01,0.0172,0.0224,0.0229,0.0292,0.025,0.0216,0.0253,0.0249,0.0246,0.0283,0.0285,0.0256,0.0256,0.0256,0,-0.0346,-0.0362,-0.0345,-0.0343,-0.0335,-0.0294,-0.0292,-0.0256,-0.0186,-0.0157,-0.0145,0.0003,0.0085,0.0173,0.0168,0.0213,0.024,0.0235,0.0241,0.0239,0.0238,0.0277,0.028,0.0251,0.0251,0.0252,0.0253,0,-0.037,-0.0377,-0.0383,-0.0371,-0.0354,-0.0351,-0.031,-0.0279,-0.0252,-0.021,-0.0139,-0.0048,0.0043,0.007,0.0124,0.0167,0.0188,0.0213,0.0253,0.0227,0.027,0.0275,0.0243,0.0245,0.0247,0.0248,0,0,-0.0406,-0.0403,-0.0404,-0.0405,-0.0374,-0.0365,-0.0333,-0.0289,-0.0265,-0.0209,-0.0179,-0.0072,-0.0037,0.0024,0.0091,0.0127,0.0136,0.0159,0.0163,0.0179,0.021,0.0234,0.0243,0.015,0.0151,0.0151,0.0237,0,-0.0427,-0.0443,-0.0429,-0.0434,-0.0439,-0.0395,-0.0368,-0.0319,-0.0275,-0.0233,-0.0156,-0.0102,-0.005,-0.0022,0.0021,0.011,0.0147,0.0111,0.0249,0.0253,0.0265,0.0249,0.0231,0.0307,0.0243,0.0244,0.0244,0,-0.0449,-0.0462,-0.048,-0.0471,-0.0469,-0.0463,-0.042,-0.0391,-0.0313,-0.0279,-0.0218,-0.0159,-0.0084,-0.0061,0.0073,0.0041,0.0115,0.0176,0.0181,0.025,0.0288,0.0329,0.032,0.0254,0.0253,0.0253,0.0252,0,-0.0485,-0.0493,-0.0516,-0.0515,-0.0495,-0.0493,-0.048,-0.0408,-0.0386,-0.0321,-0.0297,-0.0201,-0.0155,-0.0066,0.007,0.0062,0.0203,0.0214,0.0312,0.0315,0.0354,0.036,0.0298,0.0297,0.0297,0.0297,0.0297,0,-0.0513,-0.0529,-0.0543,-0.0558,-0.0584,-0.0548,-0.055,-0.0509,-0.0459,-0.0423,-0.0338,-0.0281,-0.016,-0.0054,0.005,0.0202,0.0196,0.0306,0.0339,0.0315,0.0315,0.0319,0.032,0.03,0.03,0.0299,0.0298,0,-0.0539,-0.0546,-0.0581,-0.0594,-0.0605,-0.0627,-0.0626,-0.0616,-0.0552,-0.0508,-0.0496,-0.0352,-0.0204,-0.0064,0.0103,0.0191,0.0323,0.0382,0.0346,0.0371,0.0411,0.0406,0.0482,0.0483,0.0485,0.0486,0.0487,0,-0.0556,-0.0578,-0.0628,-0.0668,-0.0685,-0.0713,-0.0726,-0.0681,-0.0667,-0.0527,-0.0513,-0.0356,-0.0209,0.004,0.0205,0.0386,0.0386,0.0465,0.045,0.0406,0.043,0.0422,0.0416,0.0458,0.0458,0.0459,0.0459,0,-0.0593,-0.0613,-0.0647,-0.0734,-0.0779,-0.0813,-0.083,-0.0825,-0.0738,-0.0647,-0.0487,-0.0354,-0.0103,0.0111,0.0323,0.042,0.0425,0.0481,0.0456,0.0409,0.0389,0.041,0.0403,0.0464,0.0463,0.0463,0.0463,0.0462,-0.0627,-0.0664,-0.0721,-0.0795,-0.0862,-0.09,-0.0891,-0.0866,-0.0794,-0.0626,-0.0489,-0.0243,-0.0063,0.0266,0.0405,0.0514,0.0512,0.0533,0.0529,0.0525,0.0502,0.0485,0.0574,0.0574,0.0574,0.0574,0.0575,0,-0.0662,-0.0702,-0.0779,-0.0865,-0.0942,-0.096,-0.0946,-0.0891,-0.0775,-0.0607,-0.0412,-0.0133,0.0105,0.0281,0.0472,0.0583,0.0559,0.0582,0.0532,0.0527,0.0523,0.0497,0.057,0.057,0.057,0.0571,0,0,-0.0685,-0.0749,-0.0781,-0.091,-0.098,-0.0993,-0.0964,-0.0864,-0.073,-0.0515,-0.032,-0.0103,0.0128,0.0264,0.0395,0.0488,0.0467,0.0484,0.0476,0.0395,0.0389,0.0485,0.0439,0,0,0,0,0]}],[{"header":{"parameterUnit":"m.s-1","parameterCategory":2,"la1":30.2991,"la2":30.254,"lo1":-89.0895,"lo2":-89.0444,"dy":0.0017,"dx":0.0017,"nx":28,"ny":28,"refTime":"2023-10-28T09:00:00:Z","depth":"4","parameterNumber":2,"parameterNumberName":"U-component_of_CURRENTS"},"data":[0,0,0,0,0,0,0,0,0,0,0,0,0,0,0,0,0,0,0,0,0,0,0,0,0,0,0,0,0,0,0,0,0,0,0,0,0,0,0,0,0,0,0,0,0,0,0,0,0,0,0,0,0,0,0,0,0,0,-0.0647,-0.0647,0,-0.0643,-0.0642,-0.0642,-0.0644,-0.0644,-0.0645,-0.0645,-0.0606,-0.0605,-0.0604,0,0,0,0,0,0,0,0,0,0,0,0,0,-0.0622,-0.0622,-0.0647,-0.0647,-0.0647,-0.0643,-0.0642,-0.0642,-0.0644,-0.0644,-0.0645,-0.0645,-0.0607,-0.0605,-0.0604,0,0,0,0,0,0,0,0,0,0,0,0,0,-0.0625,-0.0622,-0.0647,-0.0649,-0.0649,-0.0643,-0.0642,-0.0642,-0.0644,-0.0644,-0.0645,-0.0645,-0.0607,-0.0605,-0.0603,-0.0584,0,0,-0.0598,-0.0597,0,0,0,0,0,0,0,0,-0.0625,-0.0626,-0.0648,-0.0649,-0.0649,-0.0646,-0.0619,-0.0622,-0.0644,-0.0644,-0.0645,-0.0645,-0.0617,-0.0614,-0.0611,-0.0582,-0.0581,-0.0597,-0.0596,-0.0595,-0.0595,0,0,0,0,0,0,0,-0.0625,-0.0626,-0.0644,-0.0649,-0.0649,-0.0638,-0.0639,-0.062,-0.0627,-0.0644,-0.0645,-0.0647,-0.0617,-0.0613,-0.061,-0.058,-0.0597,-0.0596,-0.0595,-0.0594,-0.0576,-0.0577,0,0,0,0,0,0,-0.063,-0.0626,-0.0644,-0.0644,-0.0639,-0.0638,-0.0639,-0.0645,-0.0628,-0.0626,-0.0646,-0.0647,-0.0616,-0.0612,-0.0609,-0.0636,-0.0595,-0.0594,-0.0593,-0.0576,-0.0577,-0.0577,0,0,0,0,0,0,-0.063,-0.0632,-0.0644,-0.0636,-0.0637,-0.0639,-0.0645,-0.0645,-0.0651,-0.063,-0.0627,-0.0654,-0.0616,-0.0611,-0.0609,-0.0632,-0.0593,-0.0591,-0.0575,-0.0576,-0.0577,-0.0657,0,0,0,0,0,0,-0.0629,-0.0632,-0.0641,-0.0636,-0.0637,-0.0653,-0.0645,-0.0645,-0.0652,-0.0653,-0.0636,-0.0632,-0.0616,-0.0612,-0.0607,-0.0629,-0.059,-0.0574,-0.0575,-0.0577,-0.0653,-0.066,-0.0667,0,0,0,0,0,-0.0628,-0.0638,-0.0642,-0.0644,-0.0649,-0.0654,-0.0654,-0.0654,-0.0652,-0.066,-0.0652,-0.0633,-0.0616,-0.0611,-0.0605,-0.0627,-0.0573,-0.0575,-0.0576,-0.065,-0.0659,-0.0666,0,0,0,0,0,0,-0.063,-0.0639,-0.0643,-0.0655,-0.0661,-0.0655,-0.0661,-0.066,-0.0659,-0.0659,-0.0639,-0.0635,-0.0644,-0.0619,-0.0614,-0.0624,-0.0592,-0.0593,-0.0651,-0.0658,-0.0665,-0.0679,-0.0588,0,0,0,0,0,-0.0636,-0.0649,-0.0653,-0.0664,-0.0667,-0.0666,-0.0668,-0.0669,-0.0666,-0.0666,-0.0658,-0.0646,-0.0643,-0.0639,-0.0628,-0.0629,-0.0633,-0.0638,-0.0645,-0.0651,-0.0658,-0.0692,-0.0703,-0.0582,-0.0582,-0.0582,0,0,-0.0641,-0.0647,-0.0656,-0.0666,-0.0668,-0.0674,-0.0668,-0.0676,-0.0688,-0.066,-0.0675,-0.0669,-0.0648,-0.0659,-0.0659,-0.0642,-0.0689,-0.0653,-0.0658,-0.0662,-0.0695,-0.0707,-0.0717,-0.0583,-0.0583,-0.0583,0,0,-0.065,-0.0663,-0.0672,-0.0679,-0.0687,-0.0687,-0.0692,-0.0695,-0.0707,-0.0716,-0.0707,-0.0724,-0.0701,-0.071,-0.0705,-0.0738,-0.0724,-0.0725,-0.077,-0.0803,-0.0814,-0.0823,-0.0856,-0.0868,-0.0727,-0.0727,-0.0727,0,-0.0654,-0.0666,-0.0676,-0.0683,-0.069,-0.0694,-0.0703,-0.0713,-0.0719,-0.0739,-0.0729,-0.0745,-0.0732,-0.076,-0.0774,-0.0757,-0.0767,-0.0745,-0.0815,-0.0824,-0.0832,-0.0863,-0.0875,-0.0731,-0.0731,-0.073,-0.073,0,-0.0665,-0.0676,-0.0682,-0.0695,-0.0707,-0.0714,-0.073,-0.0753,-0.0765,-0.0779,-0.0818,-0.0815,-0.0827,-0.0828,-0.081,-0.0862,-0.0848,-0.0824,-0.08,-0.085,-0.0878,-0.089,-0.0737,-0.0736,-0.0734,-0.0733,0,0,-0.0663,-0.0685,-0.0687,-0.0697,-0.0713,-0.0724,-0.0756,-0.079,-0.0826,-0.0845,-0.089,-0.0905,-0.0916,-0.0911,-0.0902,-0.0932,-0.1007,-0.0903,-0.0903,-0.0947,-0.1083,-0.0967,-0.0967,-0.0994,-0.0996,-0.0997,-0.1085,0,-0.0665,-0.0678,-0.0694,-0.0715,-0.072,-0.075,-0.0784,-0.0823,-0.0855,-0.0901,-0.0928,-0.0958,-0.0942,-0.0955,-0.0987,-0.0996,-0.1037,-0.0985,-0.1019,-0.102,-0.0919,-0.0976,-0.1004,-0.1093,-0.1095,-0.1097,-0.1098,0,-0.0664,-0.0672,-0.0686,-0.073,-0.074,-0.0761,-0.0827,-0.0861,-0.093,-0.0959,-0.1005,-0.1018,-0.1072,-0.1042,-0.1113,-0.1079,-0.1092,-0.1101,-0.1104,-0.0973,-0.0923,-0.1028,-0.1118,-0.1117,-0.1115,-0.1114,-0.1113,0,-0.0641,-0.0673,-0.0683,-0.0693,-0.0738,-0.077,-0.0809,-0.088,-0.0928,-0.0997,-0.1034,-0.1092,-0.1122,-0.1156,-0.1164,-0.115,-0.1228,-0.1211,-0.1128,-0.1121,-0.1165,-0.1153,-0.1272,-0.1272,-0.1272,-0.1272,-0.1271,0,-0.0624,-0.064,-0.0677,-0.0677,-0.0722,-0.0765,-0.083,-0.0881,-0.096,-0.1017,-0.1061,-0.1105,-0.1151,-0.1188,-0.1196,-0.1187,-0.1259,-0.115,-0.1137,-0.1196,-0.1187,-0.1174,-0.1161,-0.1275,-0.1274,-0.1274,-0.1273,0,-0.0589,-0.0612,-0.0625,-0.0673,-0.0703,-0.0733,-0.0836,-0.089,-0.0964,-0.1036,-0.106,-0.1138,-0.1175,-0.1201,-0.1253,-0.1217,-0.1224,-0.1201,-0.127,-0.1257,-0.1097,-0.1087,-0.1145,-0.1142,-0.1139,-0.1137,-0.1135,0,-0.0573,-0.0569,-0.0608,-0.063,-0.0653,-0.0719,-0.0775,-0.0874,-0.0923,-0.1047,-0.107,-0.1137,-0.117,-0.1161,-0.1189,-0.1195,-0.117,-0.118,-0.1137,-0.1103,-0.1086,-0.108,-0.1075,-0.113,-0.1129,-0.1129,-0.1128,0,-0.0532,-0.054,-0.0544,-0.0575,-0.0625,-0.0696,-0.0773,-0.0807,-0.092,-0.1002,-0.1051,-0.1071,-0.11,-0.1112,-0.11,-0.1106,-0.1177,-0.115,-0.1156,-0.1117,-0.1086,-0.107,-0.1068,-0.1118,-0.1119,-0.112,-0.1121,0,-0.05,-0.0487,-0.0486,-0.0512,-0.0579,-0.0637,-0.0699,-0.0763,-0.0828,-0.0954,-0.0972,-0.1034,-0.11,-0.1068,-0.107,-0.1043,-0.1035,-0.1011,-0.1024,-0.1035,-0.0949,-0.0891,-0.0866,0,0,0,0,0,-0.0463,-0.0434,-0.044,-0.046,-0.0525,-0.0563,-0.0681,-0.0745,-0.0854,-0.0863,-0.0913,-0.0933,-0.0941,-0.0977,-0.0924,-0.101,-0.1028,-0.0945,-0.1005,-0.1064,-0.1075,-0.0978,0,0,0,0,0,0,-0.0431,-0.0424,-0.04,-0.0405,-0.0417,-0.0492,-0.0563,-0.0649,-0.0659,-0.0767,-0.0772,-0.0854,-0.0865,-0.0933,-0.089,-0.0898,-0.0915,-0.0984,-0.0982,-0.1057,-0.1067,-0.1077,-0.0981,0,0,0,0,0]},{"header":{"parameterUnit":"m.s-1","parameterCategory":2,"la1":30.2991,"la2":30.254,"lo1":-89.0895,"lo2":-89.0444,"dy":0.0017,"dx":0.0017,"nx":28,"ny":28,"refTime":"2023-10-28T09:00:00:Z","depth":"4","parameterNumber":3,"parameterNumberName":"V-component_of_CURRENTS"},"data":[0,0,0,0,0,0,0,0,0,0,0,0,0,0,0,0,0,0,0,0,0,0,0,0,0,0,0,0,0,0,0,0,0,0,0,0,0,0,0,0,0,0,0,0,0,0,0,0,0,0,0,0,0,0,0,0,0,0,0.0148,0.0148,0,0.0167,0.0167,0.0168,0.0192,0.0192,0.0192,0.0193,0.0228,0.0228,0.0229,0,0,0,0,0,0,0,0,0,0,0,0,0,0.0134,0.0135,0.0148,0.0148,0.0148,0.0167,0.0167,0.0168,0.0192,0.0192,0.0193,0.0193,0.0227,0.0228,0.0229,0,0,0,0,0,0,0,0,0,0,0,0,0,0.0146,0.0135,0.0148,0.0162,0.0164,0.0167,0.0167,0.0168,0.0192,0.0192,0.0193,0.0193,0.0227,0.0228,0.0229,0.0225,0,0,0.0232,0.0232,0,0,0,0,0,0,0,0,0.0145,0.0147,0.016,0.0161,0.0163,0.0177,0.0175,0.0187,0.0192,0.0182,0.0193,0.0193,0.0211,0.0214,0.0217,0.0226,0.0228,0.0232,0.0232,0.0233,0.0233,0,0,0,0,0,0,0,0.0145,0.0146,0.0156,0.016,0.0162,0.0168,0.0171,0.0178,0.0194,0.0183,0.0184,0.0185,0.0213,0.0216,0.0218,0.0228,0.0232,0.0233,0.0233,0.0234,0.0226,0.0225,0,0,0,0,0,0,0.014,0.0145,0.0156,0.0157,0.0155,0.0168,0.0171,0.0172,0.0194,0.0197,0.0185,0.0186,0.0214,0.0217,0.0219,0.021,0.0233,0.0234,0.0234,0.0227,0.0226,0.0225,0,0,0,0,0,0,0.014,0.0141,0.0155,0.0151,0.0153,0.0168,0.017,0.0173,0.0177,0.0195,0.0199,0.0186,0.0214,0.0218,0.0218,0.0212,0.0234,0.0235,0.0227,0.0226,0.0225,0.0195,0,0,0,0,0,0,0.014,0.0141,0.0142,0.0151,0.0153,0.0152,0.0169,0.0173,0.0177,0.0179,0.0198,0.0202,0.0215,0.0216,0.0219,0.0213,0.0236,0.0228,0.0227,0.0226,0.0197,0.0193,0.0189,0,0,0,0,0,0.0139,0.0137,0.0141,0.0143,0.0153,0.0151,0.0153,0.0166,0.0176,0.0173,0.0183,0.0201,0.0209,0.0216,0.022,0.0214,0.0229,0.0227,0.0226,0.0198,0.0194,0.0189,0,0,0,0,0,0,0.0129,0.0139,0.0145,0.0145,0.0145,0.0155,0.0155,0.0163,0.0169,0.0173,0.0192,0.0195,0.0192,0.0204,0.0212,0.0206,0.0222,0.0221,0.02,0.0196,0.0192,0.0195,0.0236,0,0,0,0,0,0.0127,0.013,0.0135,0.0135,0.0135,0.0144,0.0146,0.0152,0.0158,0.0162,0.0173,0.0183,0.0187,0.0192,0.0196,0.0195,0.0222,0.0192,0.0189,0.0185,0.0189,0.024,0.0242,0.0219,0.0219,0.0219,0,0,0.0122,0.0128,0.013,0.0133,0.0137,0.0126,0.0147,0.0146,0.0137,0.0164,0.0157,0.0169,0.0182,0.0178,0.0178,0.0189,0.0199,0.0183,0.0181,0.0186,0.0239,0.0242,0.0244,0.0218,0.0218,0.0218,0,0,0.0108,0.0119,0.0114,0.011,0.0112,0.0115,0.0112,0.0117,0.0122,0.0113,0.0131,0.0142,0.0141,0.0157,0.0163,0.0141,0.0175,0.0136,0.0126,0.0175,0.0178,0.0181,0.0192,0.0196,0.0138,0.0138,0.0138,0,0.0099,0.0093,0.011,0.0097,0.0089,0.0107,0.0087,0.0092,0.0094,0.0101,0.0104,0.0125,0.0133,0.0147,0.0132,0.0136,0.0157,0.0143,0.0173,0.0177,0.018,0.0191,0.0196,0.0137,0.0137,0.0137,0.0137,0,0.0078,0.0068,0.0063,0.0053,0.0046,0.0033,0.0037,0.0038,0.0046,0.0056,0.0069,0.0089,0.0107,0.0106,0.0108,0.0135,0.0136,0.0162,0.0189,0.0181,0.0192,0.0198,0.0134,0.0135,0.0135,0.0136,0,0,0.0065,0.005,0.0047,0.003,0.002,0.0011,0.0001,0.0002,0.0009,0.0021,0.0037,0.0043,0.0074,0.0082,0.0102,0.0138,0.0165,0.0153,0.0157,0.017,0.025,0.0233,0.0238,0.0203,0.0205,0.0206,0.0237,0,0.0039,0.0005,0.0007,-0.0033,-0.0055,-0.0045,-0.0055,-0.0048,-0.0031,-0.0009,0.0033,0.005,0.006,0.0074,0.0112,0.015,0.0184,0.0153,0.0249,0.0251,0.0245,0.0246,0.021,0.0242,0.0243,0.0244,0.0245,0,0.0015,-0.0008,-0.0049,-0.0077,-0.0083,-0.0099,-0.0098,-0.0104,-0.0064,-0.0046,-0.0004,0.0033,0.0074,0.0096,0.0171,0.0151,0.0195,0.0231,0.0234,0.0238,0.0247,0.0257,0.0257,0.0256,0.0255,0.0254,0.0253,0,-0.0005,-0.0046,-0.0078,-0.0092,-0.0119,-0.0127,-0.0133,-0.0111,-0.0109,-0.0058,-0.0039,0.0024,0.0053,0.0128,0.0185,0.0185,0.0276,0.0292,0.032,0.0318,0.0338,0.0335,0.0368,0.0368,0.0368,0.0367,0.0367,0,-0.0035,-0.0062,-0.009,-0.0112,-0.015,-0.0152,-0.0167,-0.0156,-0.0127,-0.012,-0.0054,-0.003,0.0067,0.0128,0.019,0.026,0.0284,0.0317,0.0335,0.0318,0.0312,0.0341,0.0337,0.0369,0.0368,0.0368,0.0368,0,-0.0051,-0.0068,-0.0114,-0.0148,-0.0162,-0.0186,-0.0204,-0.0208,-0.0173,-0.0156,-0.014,-0.007,0.0005,0.0101,0.0211,0.0253,0.0335,0.0362,0.0309,0.0323,0.0337,0.0331,0.039,0.039,0.039,0.039,0.039,0,-0.0065,-0.0087,-0.0142,-0.0177,-0.0195,-0.0229,-0.0252,-0.0238,-0.0237,-0.0188,-0.018,-0.0099,-0.0044,0.009,0.0189,0.0316,0.034,0.0368,0.0376,0.0333,0.0344,0.0338,0.0333,0.039,0.039,0.039,0.039,0,-0.0095,-0.0106,-0.014,-0.0209,-0.025,-0.0296,-0.0319,-0.0323,-0.0298,-0.0261,-0.0209,-0.0122,-0.0036,0.0074,0.018,0.0271,0.0341,0.0368,0.0369,0.0376,0.0333,0.0343,0.0338,0.0389,0.0389,0.0389,0.0389,0,-0.0112,-0.0138,-0.0179,-0.0235,-0.0297,-0.0349,-0.0359,-0.0356,-0.0347,-0.0277,-0.0269,-0.0152,-0.0083,0.0051,0.0142,0.0236,0.026,0.028,0.0286,0.0288,0.0254,0.0183,0.0211,0,0,0,0,0,-0.013,-0.0153,-0.0208,-0.0277,-0.0339,-0.0369,-0.04,-0.0398,-0.0369,-0.0337,-0.0295,-0.0207,-0.0057,0.0006,0.0098,0.0133,0.0267,0.0241,0.029,0.0387,0.0388,0.0365,0,0,0,0,0,0,-0.0143,-0.0186,-0.0205,-0.0295,-0.0347,-0.0414,-0.0434,-0.042,-0.0392,-0.0345,-0.0264,-0.0194,-0.0049,-0.0103,0.0099,0.0128,0.0167,0.0323,0.0325,0.0387,0.0388,0.0388,0.0365,0,0,0,0,0]}]]